�N����,����,�~����,�C��,���x,�C��,����,���ϕ���,�ő�u�ԕ���,�ő厞����,���˗�,�I�_���x,�n�����x,�ő啗���N��,DTYPE
"19/05/09","00:10",0.0,11.5,53.9,1006.9,296.1,1.8,3.2,332.0,0.00,2.5,15.7,"00:07:02",1
"19/05/09","00:20",0.0,11.3,55.1,1007.4,306.9,1.7,2.5,319.8,0.00,2.7,15.8,"00:16:02",1
"19/05/09","00:30",0.0,11.1,57.2,1006.9,305.0,1.3,2.1,312.5,0.00,3.0,15.6,"00:24:40",1
"19/05/09","00:40",0.0,11.1,55.9,1006.9,297.5,1.5,2.5,313.8,0.00,2.7,15.5,"00:38:08",1
"19/05/09","00:50",0.0,11.0,56.2,1006.9,325.1,1.8,2.4,317.3,0.00,2.7,15.6,"00:46:32",1
"19/05/09","01:00",0.0,10.7,58.7,1006.9,323.5,1.3,2.0,306.6,0.00,3.0,15.5,"00:54:16",1
"19/05/09","01:10",0.0,10.7,58.5,1006.7,291.3,1.5,2.0,316.0,0.00,2.9,15.3,"01:04:52",1
"19/05/09","01:20",0.0,11.0,55.5,1006.7,304.9,1.5,1.8,309.0,0.00,2.5,15.4,"01:12:00",1
"19/05/09","01:30",0.0,11.0,56.0,1006.4,319.0,1.7,2.5,331.5,0.00,2.6,15.3,"01:29:20",1
"19/05/09","01:40",0.0,11.1,56.1,1006.7,308.0,1.7,2.5,311.9,0.00,2.7,15.3,"01:36:00",1
"19/05/09","01:50",0.0,10.9,58.5,1006.7,325.0,1.5,2.2,317.8,0.00,3.1,15.2,"01:46:56",1
"19/05/09","02:00",0.0,10.8,59.0,1006.2,305.4,1.6,2.6,324.0,0.00,3.2,15.3,"01:54:40",1
"19/05/09","02:10",0.0,10.9,57.1,1006.7,281.2,1.3,1.6,278.5,0.00,2.8,15.0,"02:03:12",1
"19/05/09","02:20",0.0,10.9,58.4,1006.4,322.0,1.6,2.4,334.6,0.00,3.1,15.1,"02:15:44",1
"19/05/09","02:30",0.0,10.4,62.1,1006.4,311.5,1.5,2.5,322.8,0.00,3.5,15.1,"02:20:48",1
"19/05/09","02:40",0.0,10.4,62.4,1006.4,302.5,1.5,2.4,318.9,0.00,3.6,15.1,"02:39:28",1
"19/05/09","02:50",0.0,10.7,59.4,1006.4,297.6,1.5,2.5,315.9,0.00,3.2,15.0,"02:40:02",1
"19/05/09","03:00",0.0,10.7,59.2,1006.4,297.8,1.5,2.5,320.4,0.00,3.1,15.2,"02:50:08",1
"19/05/09","03:10",0.0,10.7,60.2,1006.2,301.0,1.2,2.2,314.2,0.00,3.3,14.9,"03:00:48",1
"19/05/09","03:20",0.0,10.6,61.9,1006.4,306.8,1.3,2.0,326.0,0.00,3.6,14.8,"03:17:04",1
"19/05/09","03:30",0.0,10.6,62.7,1006.4,332.1,1.5,2.4,323.8,0.00,3.8,14.8,"03:29:12",1
"19/05/09","03:40",0.0,10.2,66.2,1006.2,294.8,1.3,2.0,328.5,0.00,4.2,14.9,"03:30:16",1
"19/05/09","03:50",0.0,10.1,67.3,1006.2,292.4,1.1,1.6,306.2,0.00,4.4,14.7,"03:49:52",1
"19/05/09","04:00",0.0,10.4,66.2,1006.4,293.6,1.6,2.8,319.7,0.00,4.4,14.6,"03:59:52",1
"19/05/09","04:10",0.0,10.6,65.3,1006.4,331.4,1.6,2.9,334.1,0.00,4.4,14.9,"04:00:48",1
"19/05/09","04:20",0.0,10.4,66.6,1006.0,296.6,1.3,2.0,321.2,0.00,4.5,14.8,"04:11:12",1
"19/05/09","04:30",0.0,10.2,68.0,1006.0,294.7,1.5,2.1,319.9,0.00,4.6,14.7,"04:29:36",1
"19/05/09","04:40",0.0,10.4,67.9,1006.0,329.1,1.6,3.1,335.6,0.00,4.8,14.8,"04:31:36",1
"19/05/09","04:50",0.0,10.4,67.8,1006.2,296.0,1.3,1.8,317.0,0.00,4.8,14.7,"04:44:56",1
"19/05/09","05:00",0.0,10.4,68.0,1006.0,301.2,1.3,1.9,313.7,0.00,4.8,14.6,"04:53:04",1
"19/05/09","05:10",0.0,10.3,68.5,1006.2,293.8,1.0,1.7,304.0,0.00,4.8,14.5,"05:05:12",1
"19/05/09","05:20",0.0,10.4,69.0,1006.2,321.9,1.6,2.7,337.5,0.00,5.0,14.6,"05:13:36",1
"19/05/09","05:30",0.0,10.5,69.4,1006.0,309.1,1.3,1.8,321.4,0.00,5.2,14.5,"05:22:08",1
"19/05/09","05:40",0.0,10.4,69.7,1006.4,302.7,1.0,1.7,322.2,0.00,5.1,14.7,"05:31:28",1
"19/05/09","05:50",0.0,10.5,70.5,1006.2,323.1,1.7,2.4,321.2,0.00,5.4,14.6,"05:44:00",1
"19/05/09","06:00",0.0,10.6,70.3,1006.7,316.1,1.8,2.4,314.7,0.00,5.5,14.5,"05:53:36",1
"19/05/09","06:10",0.0,10.8,71.2,1006.4,313.6,0.7,1.8,324.1,0.01,5.8,14.6,"06:00:08",1
"19/05/09","06:20",0.0,10.9,71.3,1006.7,323.3,1.1,2.0,316.3,0.00,6.0,14.5,"06:17:12",1
"19/05/09","06:30",0.0,10.9,72.2,1006.7,307.3,1.7,2.4,319.3,0.02,6.1,14.5,"06:21:52",1
"19/05/09","06:40",0.0,11.4,72.4,1006.4,316.0,1.3,2.5,314.6,0.04,6.7,14.5,"06:35:04",1
"19/05/09","06:50",0.0,12.0,70.6,1006.2,320.9,0.8,1.6,325.8,0.04,6.9,14.6,"06:41:04",1
"19/05/09","07:00",0.0,12.6,70.2,1006.4,264.1,0.5,0.9,298.5,0.07,7.4,14.5,"06:51:36",1
"19/05/09","07:10",0.0,13.4,63.8,1006.4,315.9,0.6,1.1,307.2,0.07,6.7,14.7,"07:07:36",1
"19/05/09","07:20",0.0,13.5,63.6,1006.7,318.6,1.3,1.8,332.6,0.05,6.8,14.6,"07:16:32",1
"19/05/09","07:30",0.0,13.6,61.8,1006.7,331.3,1.5,2.2,330.6,0.12,6.5,14.8,"07:23:44",1
"19/05/09","07:40",0.0,14.2,56.1,1007.1,283.9,0.8,1.8,301.9,0.14,5.6,14.8,"07:34:16",1
"19/05/09","07:50",0.0,14.5,56.1,1006.9,234.5,0.3,0.8,235.5,0.09,5.9,14.9,"07:40:48",1
"19/05/09","08:00",0.0,14.5,52.6,1006.9,300.5,0.3,0.6,338.4,0.04,5.0,15.0,"07:57:52",1
"19/05/09","08:10",0.0,14.6,50.0,1006.7,316.5,0.6,1.2,319.4,0.04,4.3,15.1,"08:03:36",1
"19/05/09","08:20",0.0,14.6,50.1,1006.4,269.5,0.6,0.9,260.9,0.08,4.4,15.1,"08:15:12",1
"19/05/09","08:30",0.0,15.2,50.8,1006.4,281.6,0.7,1.2,296.9,0.15,5.1,15.4,"08:27:44",1
"19/05/09","08:40",0.0,15.4,50.3,1006.9,259.4,0.6,1.4,121.8,0.19,5.2,15.3,"08:38:56",1
"19/05/09","08:50",0.0,15.5,52.7,1006.4,161.9,0.3,0.9,87.8,0.12,5.9,15.4,"08:40:08",1
"19/05/09","09:00",0.0,15.6,52.4,1006.7,222.7,0.5,1.2,233.1,0.07,5.9,15.3,"08:54:16",1
"19/05/09","09:10",0.0,15.5,52.0,1006.4,225.0,0.3,0.8,225.8,0.07,5.7,15.6,"09:08:00",1
"19/05/09","09:20",0.0,15.9,50.0,1006.4,288.2,0.6,1.3,323.8,0.12,5.5,15.7,"09:17:44",1
"19/05/09","09:30",0.0,16.0,46.9,1006.4,330.7,0.6,2.1,328.4,0.12,4.7,15.6,"09:25:28",1
"19/05/09","09:40",0.0,16.0,46.3,1006.4,243.3,0.2,1.0,161.9,0.15,4.5,15.7,"09:38:24",1
"19/05/09","09:50",0.0,16.3,46.3,1006.2,161.4,0.1,0.6,110.1,0.10,4.8,16.0,"09:45:12",1
"19/05/09","10:00",0.0,16.5,46.0,1006.0,256.9,0.5,0.9,238.1,0.09,4.9,15.8,"09:52:40",1
"19/05/09","10:10",0.0,16.5,46.1,1006.2,299.1,0.6,1.8,331.9,0.13,4.9,15.9,"10:09:20",1
"19/05/09","10:20",0.0,16.5,47.1,1006.2,258.2,0.7,1.4,333.4,0.14,5.2,15.9,"10:10:08",1
"19/05/09","10:30",0.0,16.5,46.0,1006.0,300.6,0.5,1.1,325.0,0.12,4.9,16.3,"10:21:20",1
"19/05/09","10:40",0.0,16.5,44.8,1006.0,256.8,0.5,1.2,230.2,0.12,4.5,16.2,"10:34:48",1
"19/05/09","10:50",0.0,16.6,46.0,1005.7,263.7,0.7,1.9,325.0,0.12,5.0,16.4,"10:42:40",1
"19/05/09","11:00",0.0,16.8,45.9,1006.2,241.7,0.5,1.4,237.0,0.13,5.1,16.5,"10:51:36",1
"19/05/09","11:10",0.0,17.2,47.7,1006.0,271.7,0.6,1.4,320.3,0.15,6.1,16.2,"11:08:00",1
"19/05/09","11:20",0.0,17.4,45.8,1005.7,317.6,0.5,1.1,265.0,0.21,5.6,16.4,"11:10:56",1
"19/05/09","11:30",0.0,17.6,46.6,1006.0,244.2,1.1,1.8,234.9,0.23,6.1,16.4,"11:26:08",1
"19/05/09","11:40",0.0,17.9,48.9,1005.7,262.9,0.8,1.6,237.8,0.19,7.1,16.6,"11:30:24",1
"19/05/09","11:50",0.0,18.3,47.1,1005.7,270.2,0.6,1.3,308.3,0.21,6.9,16.6,"11:40:48",1
"19/05/09","12:00",0.0,17.9,52.0,1005.5,206.0,1.3,2.6,223.2,0.18,8.0,16.7,"11:51:44",1
"19/05/09","12:10",0.0,18.1,51.4,1005.5,232.1,0.6,1.4,236.4,0.23,8.0,16.7,"12:00:32",1
"19/05/09","12:20",0.0,18.4,49.7,1005.7,270.5,0.7,1.4,260.2,0.19,7.8,16.8,"12:15:28",1
"19/05/09","12:30",0.0,19.0,52.7,1005.0,292.2,0.7,1.7,328.8,0.25,9.2,17.1,"12:24:00",1
"19/05/09","12:40",0.0,18.8,54.0,1005.5,113.4,0.8,2.0,172.5,0.25,9.3,17.2,"12:33:44",1
"19/05/09","12:50",0.0,18.8,56.4,1005.2,171.7,0.8,1.9,121.6,0.18,10.0,17.2,"12:40:40",1
"19/05/09","13:00",0.0,18.7,57.0,1004.8,185.9,1.1,1.9,182.7,0.15,10.1,17.2,"12:53:20",1
"19/05/09","13:10",0.0,18.5,56.7,1004.5,149.2,1.2,2.8,134.8,0.14,9.8,17.4,"13:02:08",1
"19/05/09","13:20",0.0,18.8,56.1,1004.3,195.9,0.6,1.3,191.8,0.14,9.9,17.4,"13:18:00",1
"19/05/09","13:30",0.0,19.0,53.7,1004.5,198.4,0.6,2.7,230.1,0.16,9.4,17.5,"13:28:40",1
"19/05/09","13:40",0.0,19.2,55.0,1004.5,187.0,1.5,2.9,147.6,0.22,10.0,17.5,"13:36:40",1
"19/05/09","13:50",0.0,19.5,54.5,1004.3,338.5,0.7,2.0,153.5,0.21,10.1,17.6,"13:40:48",1
"19/05/09","14:00",0.0,19.4,54.1,1004.1,355.1,1.5,3.3,342.9,0.20,9.9,17.7,"13:56:08",1
"19/05/09","14:10",0.0,19.3,55.3,1004.1,336.5,1.3,2.6,343.4,0.13,10.2,17.8,"14:00:56",1
"19/05/09","14:20",0.0,19.3,54.8,1004.1,350.8,1.2,2.8,339.7,0.11,10.0,17.6,"14:10:48",1
"19/05/09","14:30",0.0,19.4,54.3,1003.8,340.9,1.3,2.5,338.3,0.11,10.0,17.8,"14:27:12",1
"19/05/09","14:40",0.0,19.5,53.3,1003.6,339.1,1.0,2.0,350.0,0.13,9.8,17.7,"14:33:28",1
"19/05/09","14:50",0.0,20.0,52.8,1003.6,33.9,0.5,1.3,106.3,0.20,10.1,17.9,"14:49:44",1
"19/05/09","15:00",0.0,20.0,53.4,1002.9,133.8,0.7,1.7,118.1,0.24,10.3,17.9,"14:56:32",1
"19/05/09","15:10",0.0,20.4,52.1,1002.4,109.8,0.5,1.8,120.0,0.24,10.3,18.0,"15:03:28",1
"19/05/09","15:20",0.0,20.3,54.7,1002.6,169.5,0.6,1.8,120.0,0.19,10.9,18.1,"15:14:48",1
"19/05/09","15:30",0.0,20.3,52.4,1002.6,26.7,0.8,2.5,8.5,0.17,10.3,18.2,"15:29:52",1
"19/05/09","15:40",0.0,20.4,52.9,1002.2,354.6,0.8,3.2,344.5,0.15,10.5,18.3,"15:39:36",1
"19/05/09","15:50",0.0,20.5,50.9,1002.4,328.5,1.1,2.0,337.2,0.15,10.0,18.3,"15:45:20",1
"19/05/09","16:00",0.0,20.5,50.5,1002.6,342.8,0.8,2.2,339.2,0.17,9.9,18.3,"15:57:04",1
"19/05/09","16:10",0.0,20.6,51.8,1002.6,204.8,0.7,1.8,226.0,0.17,10.4,18.3,"16:00:08",1
"19/05/09","16:20",0.0,21.3,52.5,1002.4,359.8,1.3,3.6,338.2,0.22,11.2,18.2,"16:14:08",1
"19/05/09","16:30",0.0,21.6,48.4,1002.6,322.2,1.5,3.5,343.3,0.30,10.3,18.7,"16:21:04",1
"19/05/09","16:40",0.0,22.5,45.2,1002.4,325.2,1.0,2.0,297.5,0.27,10.1,18.8,"16:36:00",1
"19/05/09","16:50",0.0,22.3,47.0,1002.4,33.0,1.0,2.5,46.7,0.23,10.5,18.5,"16:44:00",1
"19/05/09","17:00",0.0,22.4,48.4,1002.2,242.3,0.7,2.2,126.9,0.21,11.0,18.5,"16:52:08",1
"19/05/09","17:10",0.0,22.4,45.1,1002.2,323.5,1.6,4.1,322.1,0.18,10.0,18.7,"17:02:32",1
"19/05/09","17:20",0.0,22.4,48.4,1002.4,225.0,1.5,2.8,238.8,0.16,11.0,18.8,"17:17:36",1
"19/05/09","17:30",0.0,21.9,46.3,1002.6,207.8,1.6,3.3,207.0,0.14,9.9,18.7,"17:27:04",1
"19/05/09","17:40",0.0,22.3,46.2,1002.4,281.2,0.6,1.6,102.5,0.11,10.2,18.7,"17:30:24",1
"19/05/09","17:50",0.0,22.3,46.2,1002.6,112.7,0.8,1.9,103.8,0.06,10.2,18.7,"17:41:12",1
"19/05/09","18:00",0.0,21.5,50.4,1002.6,185.0,1.7,3.3,199.6,0.02,10.8,18.7,"17:53:52",1
"19/05/09","18:10",0.0,21.1,50.5,1002.6,180.7,1.7,3.2,154.3,0.01,10.5,18.7,"18:04:40",1
"19/05/09","18:20",0.0,20.9,51.0,1002.9,215.4,1.7,3.3,226.0,0.01,10.4,18.5,"18:17:28",1
"19/05/09","18:30",0.0,20.5,52.3,1002.4,216.6,2.0,4.2,205.6,0.00,10.4,18.6,"18:24:40",1
"19/05/09","18:40",0.0,20.3,51.7,1003.1,237.4,1.6,2.6,235.4,0.00,10.1,18.3,"18:38:00",1
"19/05/09","18:50",0.0,19.9,54.3,1002.9,280.9,1.1,1.8,328.0,0.00,10.4,18.6,"18:48:32",1
"19/05/09","19:00",0.0,18.8,58.6,1003.1,299.9,1.0,1.3,316.6,0.00,10.6,18.2,"18:54:32",1
"19/05/09","19:10",0.0,17.8,62.3,1003.6,290.3,0.8,1.6,307.6,0.00,10.5,18.2,"19:03:20",1
"19/05/09","19:20",0.0,17.2,64.8,1003.4,303.8,1.3,2.7,329.4,0.00,10.6,18.1,"19:13:04",1
"19/05/09","19:30",0.0,16.7,66.9,1004.1,320.8,0.8,1.8,337.9,0.00,10.6,17.9,"19:24:48",1
"19/05/09","19:40",0.0,16.3,68.2,1004.1,309.8,0.8,1.3,325.5,0.00,10.5,17.7,"19:35:52",1
"19/05/09","19:50",0.0,15.9,69.2,1004.1,295.3,1.0,1.4,326.8,0.00,10.3,17.6,"19:48:00",1
"19/05/09","20:00",0.0,15.7,70.1,1004.3,312.8,1.2,2.0,328.0,0.00,10.3,17.6,"19:53:12",1
"19/05/09","20:10",0.0,15.5,72.0,1004.1,299.2,1.2,1.8,325.4,0.00,10.5,17.3,"20:03:28",1
"19/05/09","20:20",0.0,15.5,72.9,1004.3,326.2,2.3,3.5,320.5,0.00,10.7,17.4,"20:12:08",1
"19/05/09","20:30",0.0,15.5,73.5,1004.5,316.5,2.5,4.1,323.2,0.00,10.8,17.2,"20:23:04",1
"19/05/09","20:40",0.0,15.4,73.6,1004.5,328.9,1.8,3.1,339.0,0.00,10.8,17.2,"20:30:08",1
"19/05/09","20:50",0.0,15.1,74.1,1004.8,307.3,1.3,2.1,342.1,0.00,10.6,17.2,"20:41:28",1
"19/05/09","21:00",0.0,14.8,75.5,1005.0,296.9,1.3,2.1,337.3,0.00,10.6,16.8,"20:51:04",1
"19/05/09","21:10",0.0,14.6,75.9,1005.2,299.1,1.2,2.4,315.5,0.00,10.4,16.9,"21:04:00",1
"19/05/09","21:20",0.0,14.5,76.8,1005.0,294.7,1.2,1.8,326.4,0.00,10.5,16.6,"21:14:56",1
"19/05/09","21:30",0.0,14.3,76.2,1005.0,295.6,1.1,2.2,321.3,0.00,10.2,16.7,"21:28:32",1
"19/05/09","21:40",0.0,13.9,78.1,1005.2,330.3,1.5,2.2,329.6,0.00,10.2,16.4,"21:33:20",1
"19/05/09","21:50",0.0,13.7,79.8,1005.2,321.0,1.3,1.7,329.9,0.00,10.3,16.5,"21:40:40",1
"19/05/09","22:00",0.0,13.5,80.6,1005.5,288.9,1.2,1.8,314.2,0.00,10.3,16.3,"21:52:16",1
"19/05/09","22:10",0.0,13.1,81.1,1005.7,313.4,1.0,1.8,321.3,0.00,10.0,16.2,"22:06:56",1
"19/05/09","22:20",0.0,13.1,82.6,1005.5,305.6,1.6,2.2,318.0,0.00,10.2,16.3,"22:13:44",1
"19/05/09","22:30",0.0,13.3,82.6,1005.7,315.4,1.3,2.2,322.1,0.00,10.4,16.1,"22:22:40",1
"19/05/09","22:40",0.0,13.0,81.6,1005.7,318.7,1.6,2.1,317.1,0.00,10.0,16.1,"22:37:12",1
"19/05/09","22:50",0.0,12.5,83.1,1005.7,320.3,1.3,2.1,320.5,0.00,9.8,16.0,"22:49:54",1
"19/05/09","23:00",0.0,12.3,85.1,1006.2,290.2,1.3,2.2,310.8,0.00,9.9,16.1,"22:51:12",1
"19/05/09","23:10",0.0,12.4,84.7,1006.2,283.9,1.3,1.9,308.3,0.00,9.9,15.9,"23:09:52",1
"19/05/09","23:20",0.0,12.4,84.6,1006.0,314.9,1.6,2.7,324.9,0.00,9.9,15.7,"23:12:24",1
"19/05/09","23:30",0.0,12.3,85.6,1006.2,286.2,1.2,1.6,312.4,0.00,10.0,15.6,"23:20:40",1
"19/05/09","23:40",0.0,12.3,85.0,1006.4,282.2,1.5,2.1,317.6,0.00,9.9,15.8,"23:32:32",1
"19/05/09","23:50",0.0,12.2,85.7,1006.2,294.2,1.5,2.5,318.9,0.00,9.9,15.5,"23:48:32",1
"19/05/09","24:00",0.0,12.3,85.8,1006.4,287.1,1.6,2.2,323.2,0.00,10.0,15.5,"23:58:08",1
